THORAD DELTA 1 DEB, 9695

Orbit data source: Space-Track

THORAD DELTA 1 DEB, 9695 is space debris in LEO originally from a launch on Fri, 15 Nov 1974 UTC launched from the Air Force Western Test Range (AFWTR). Debris objects in space refer to the collection of defunct objects orbiting the Earth. Examples of debris include non-operational satellites, rocket bodies, and fragments generated from explosions, collisions, or faulty payload assembly.

Loading next visibility...
Identifier
9695, 1974-089DU
Orbit
LEO
Country
Flag of USUS
Related business
Manufacturer
Unknown
Mission
Spacecraft
Bus & Motor
Unknown
Mass
Unknown
Launch date (UTC)
1974-11-15 (51 years ago)
Launch vehicle
Unknown
Launch site
Air Force Western Test Range (AFWTR)
Object type
Payload
Rocket body
Debris
Shape & HBR
Unknown shape, 0.1 m
Radar Cross Section
Small (<0.1 m²)

Expand to show TLE details & history
Last TLE update: 21 hours ago

TLE from 21 hours ago
0 THORAD DELTA 1 DEB
1 09695U 74089DU  26106.54161568  .00001024  00000-0  12794-2 0  9990
2 09695 103.0121 104.5039 0281392  72.4658 290.7001 13.52754533432004
Epoch: 2026-04-16T12:59Z
TLE epoch observation values (Epoch: 2026-04-16T12:59:55.594Z)
Latitude
-0.00005°
Longitude
64.8346°
Altitude
996.014 km
Speed
7.388 km/s
True Right ascension
06h 58m 00s
True Declination
0° 00' 00"
Sunlit
Object was in daylight at epoch
Visualization orbit readout
Latitude
Unknown
Longitude
Unknown
Altitude
Unknown
Speed
Unknown
Apparent Right ascension
Unknown
Apparent Declination
Unknown
Sunlit
N/A
Visualization observer readout
Local Sidereal Time
17:07:49
Azimuth
Unknown
Elevation
Unknown
Doppler factor
Unknown
Orbital elements
Apogee altitude
1,268.927 km
Perigee altitude
850.341 km
Semi-major axis
7,437.771 km
Eccentricity
0.02814
Inclination
103.0121°
RAAN
104.5039°
Arg. of periapsis
72.4658°
True anomaly
287.64724°
Mean anomaly
290.7001°
Eccentric anomaly
289.17731°
Mean motion
3.3836 °/min
Orbital period
106.4 mins
BSTAR
0.0012794
Loading maneuver chart data...
Computing Atmospheric mass density...

Documentation

Showing up to 5 results
|